Weather History for New Haven, CT

Change the Weather History Date:

Saturday, March 22, 2014

  Actual Average Record
Temperature  
Mean Temperature 44 °F -  
Max Temperature 60 °F 46 °F 74 °F (1979)
Min Temperature 27 °F 32 °F 16 °F (1988)
Degree Days  
Heating Degree Days 22    
Moisture  
Dew Point 28 °F    
Average Humidity 56    
Maximum Humidity 81    
Minimum Humidity 28    
Precipitation  
Precipitation 0.00 in - - ()
Sea Level Pressure  
Sea Level Pressure 29.89 in    
Wind  
Wind Speed 7 mph (WNW)    
Max Wind Speed 17 mph    
Max Gust Speed 26 mph    
Visibility 10 miles    
Events      
Averages and records for this station are not official NWS values.
T = Trace of Precipitation, MM = Missing Value Source: NWS Daily Summary

Daily Weather History Graph

Daily Weather History Graph

Search for Another Location

Airport:

Trip Planner

Search our weather history database for the weather conditions in past years. The results will help you decide how hot, cold, wet, or windy it might be!

Date:

Astronomy

Mar. 22, 2014 Rise Set
Actual Time 6:51 AM EDT 7:05 PM EDT
Civil Twilight 6:24 AM EDT 7:33 PM EDT
Nautical Twilight 5:51 AM EDT 8:05 PM EDT
Astronomical Twilight 5:18 AM EDT 8:38 PM EDT
Moon 12:25 AM EDT (3/22) 10:29 AM EDT (3/22)
Length of Visible Light 13h 09m
Length of Day
12h 14m
Waning Gibbous, 65% of the Moon is Illuminated
Mar 22
Waning Gibbous
Mar 23
Last Quarter
Mar 30
New
Apr 7
First Quarter
Apr 15
Full

Hourly Weather History & Observations

Time (EDT) Temp. Windchill Dew Point Humidity Pressure Visibility Wind Dir Wind Speed Gust Speed Precip Events Conditions
12:53 AM 33.1 °F 30.0 °F 21.9 °F 64% 30.08 in 10.0 mi SSW 3.5 mph - N/A   Clear
1:53 AM 27.0 °F 23.0 °F 19.0 °F 72% 30.06 in 10.0 mi North 3.5 mph - N/A   Clear
2:53 AM 27.0 °F - 19.9 °F 75% 30.06 in 10.0 mi Calm Calm - N/A   Clear
3:53 AM 28.0 °F - 21.9 °F 78% 30.05 in 10.0 mi Calm Calm - N/A   Mostly Cloudy
4:53 AM 27.0 °F - 21.9 °F 81% 30.02 in 10.0 mi Calm Calm - N/A   Partly Cloudy
5:53 AM 33.1 °F 28.7 °F 25.0 °F 72% 30.00 in 10.0 mi ESE 4.6 mph - N/A   Scattered Clouds
6:53 AM 36.0 °F 31.1 °F 27.0 °F 70% 29.96 in 10.0 mi ESE 5.8 mph - N/A   Overcast
7:53 AM 36.0 °F 29.6 °F 28.9 °F 76% 29.94 in 10.0 mi ESE 8.1 mph - N/A   Mostly Cloudy
8:53 AM 39.0 °F 31.8 °F 30.9 °F 73% 29.89 in 10.0 mi ESE 11.5 mph - N/A   Mostly Cloudy
9:53 AM 42.1 °F 36.1 °F 32.0 °F 67% 29.85 in 10.0 mi ESE 10.4 mph - N/A   Mostly Cloudy
10:53 AM 48.9 °F - 36.0 °F 61% 29.79 in 10.0 mi SE 10.4 mph - N/A   Mostly Cloudy
11:53 AM 48.9 °F - 37.0 °F 64% 29.76 in 10.0 mi WSW 8.1 mph - N/A   Mostly Cloudy
12:53 PM 48.9 °F - 36.0 °F 61% 29.75 in 10.0 mi SW 12.7 mph 23.0 mph N/A   Overcast
1:53 PM 52.0 °F - 36.0 °F 54% 29.74 in 10.0 mi SW 10.4 mph 18.4 mph N/A   Mostly Cloudy
2:23 PM 55.4 °F - 33.8 °F 44% 29.73 in 10.0 mi WNW 17.3 mph 25.3 mph N/A   Mostly Cloudy
2:53 PM 57.0 °F - 32.0 °F 39% 29.73 in 10.0 mi WNW 17.3 mph 25.3 mph N/A   Mostly Cloudy
3:53 PM 59.0 °F - 27.0 °F 29% 29.74 in 10.0 mi West 15.0 mph 26.5 mph N/A   Mostly Cloudy
4:53 PM 60.1 °F - 27.0 °F 28% 29.76 in 10.0 mi WNW 11.5 mph 24.2 mph N/A   Clear
5:53 PM 59.0 °F - 28.0 °F 31% 29.79 in 10.0 mi WNW 11.5 mph 19.6 mph N/A   Scattered Clouds
6:53 PM 57.0 °F - 26.1 °F 30% 29.83 in 10.0 mi NW 6.9 mph - N/A   Scattered Clouds
7:53 PM 54.0 °F - 25.0 °F 33% 29.88 in 10.0 mi NNW 10.4 mph 17.3 mph N/A   Clear
8:53 PM 48.9 °F - 25.0 °F 39% 29.93 in 10.0 mi North 12.7 mph 19.6 mph N/A   Clear
9:53 PM 45.0 °F 41.2 °F 24.1 °F 44% 29.96 in 10.0 mi North 6.9 mph - N/A   Clear
10:53 PM 41.0 °F 36.4 °F 25.0 °F 53% 29.98 in 10.0 mi North 6.9 mph - N/A   Clear
11:53 PM 39.0 °F 34.8 °F 25.0 °F 57% 29.99 in 10.0 mi North 5.8 mph - N/A   Clear